START_TIME,STEP,MOV.,M35,t_acc.,PL05,t_acc.,PL06,t_acc.,PL07,t_acc.
1981-08-30 09:00:24.450 ,6,0,0.,4.8,2.,4.8,0.,4.8,0.,4.8
1981-08-30 09:00:29.250 ,6,0,0.,4.8,1.,4.8,1.,4.8,0.,4.8
1981-08-30 09:00:34.050 ,6,0,0.,4.8,1.,4.8,0.,4.8,0.,4.8
1981-08-30 09:00:38.850 ,6,0,0.,4.8,2.,4.8,1.,4.8,0.,4.8
1981-08-30 09:00:43.650 ,6,0,0.,4.8,0.,4.8,0.,4.8,0.,4.8
1981-08-30 09:00:48.450 ,7,0,0.,4.8,2.,4.8,0.,4.8,0.,4.8
1981-08-30 09:00:53.250 ,7,0,0.,4.8,2.,4.8,0.,4.8,0.,4.8
1981-08-30 09:00:58.050 ,7,0,0.,4.8,0.,4.8,0.,4.8,0.,4.8
1981-08-30 09:01:02.850 ,7,0,0.,4.8,0.,4.8,0.,4.8,0.,4.8
1981-08-30 09:01:07.650 ,7,0,0.,4.8,0.,4.8,0.,4.8,0.,4.8
1981-08-30 09:01:12.450 ,7,0,0.,4.8,0.,4.8,0.,4.8,0.,4.8
1981-08-30 09:01:17.250 ,7,0,0.,4.8,0.,4.8,0.,4.8,0.,4.8
1981-08-30 09:01:22.050 ,7,0,0.,4.8,2.,4.8,0.,4.8,0.,4.8
1981-08-30 09:01:26.850 ,7,0,0.,4.8,0.,4.8,0.,4.8,0.,4.8
1981-08-30 09:01:31.650 ,7,0,0.,4.8,0.,4.8,0.,4.8,0.,4.8
1981-08-30 09:01:36.450 ,6,0,0.,4.8,0.,4.8,0.,4.8,0.,4.8
1981-08-30 09:01:41.250 ,6,0,0.,4.8,0.,4.8,0.,4.8,0.,4.8
1981-08-30 09:01:46.050 ,6,0,0.,4.8,2.,4.8,0.,4.8,0.,4.8
1981-08-30 09:01:50.850 ,6,0,0.,4.8,2.,4.8,1.,4.8,0.,4.8
1981-08-30 09:01:55.650 ,6,0,0.,4.8,2.,4.8,0.,4.8,0.,4.8
1981-08-30 09:02:00.450 ,5,0,0.,4.8,0.,4.8,1.,4.8,0.,4.8
1981-08-30 09:02:05.250 ,5,0,0.,4.8,0.,4.8,0.,4.8,0.,4.8
1981-08-30 09:02:10.050 ,5,0,0.,4.8,2.,4.8,0.,4.8,0.,4.8
1981-08-30 09:02:14.850 ,5,0,0.,4.8,2.,4.8,1.,4.8,0.,4.8
1981-08-30 09:02:19.650 ,5,0,0.,4.8,0.,4.8,0.,4.8,0.,4.8
1981-08-30 09:02:24.450 ,4,0,0.,4.8,0.,4.8,0.,4.8,0.,4.8
1981-08-30 09:02:29.250 ,4,0,0.,4.8,0.,4.8,0.,4.8,0.,4.8
1981-08-30 09:02:34.050 ,4,0,0.,4.8,1.,4.8,1.,4.8,0.,4.8
1981-08-30 09:02:38.850 ,4,0,0.,4.8,1.,4.8,3.,4.8,0.,4.8
1981-08-30 09:02:43.650 ,4,0,0.,4.8,1.,4.8,0.,4.8,0.,4.8
1981-08-30 09:02:48.450 ,3,0,0.,4.8,0.,4.8,2.,4.8,0.,4.8
1981-08-30 09:02:53.250 ,3,0,0.,4.8,2.,4.8,1.,4.8,0.,4.8
1981-08-30 09:02:58.050 ,3,0,0.,4.8,1.,4.8,2.,4.8,0.,4.8
1981-08-30 09:03:02.850 ,3,0,0.,4.8,3.,4.8,1.,4.8,0.,4.8
1981-08-30 09:03:07.650 ,3,0,0.,4.8,1.,4.8,0.,4.8,1.,4.8
1981-08-30 09:03:12.450 ,2,0,0.,4.8,1.,4.8,0.,4.8,0.,4.8
1981-08-30 09:03:17.250 ,2,0,0.,4.8,0.,4.8,0.,4.8,0.,4.8
1981-08-30 09:03:22.050 ,2,0,0.,4.8,3.,4.8,1.,4.8,0.,4.8
1981-08-30 09:03:26.850 ,2,0,0.,4.8,1.,4.8,0.,4.8,0.,4.8
1981-08-30 09:03:31.650 ,2,0,0.,4.8,4.,4.8,0.,4.8,0.,4.8
1981-08-30 09:03:36.450 ,1,0,0.,4.8,1.,4.8,1.,4.8,0.,4.8
1981-08-30 09:03:41.250 ,1,0,0.,4.8,1.,4.8,0.,4.8,0.,4.8
1981-08-30 09:03:46.050 ,1,0,0.,4.8,3.,4.8,1.,4.8,0.,4.8
1981-08-30 09:03:50.850 ,1,0,0.,4.8,2.,4.8,1.,4.8,0.,4.8
1981-08-30 09:03:55.650 ,1,0,0.,4.8,3.,4.8,0.,4.8,1.,4.8
1981-08-30 09:04:00.450 ,0,0,0.,4.8,2.,4.8,0.,4.8,1.,4.8
1981-08-30 09:04:05.250 ,0,0,0.,4.8,3.,4.8,0.,4.8,1.,4.8
1981-08-30 09:04:10.050 ,0,0,0.,4.8,4.,4.8,1.,4.8,0.,4.8
1981-08-30 09:04:14.850 ,0,0,0.,4.8,3.,4.8,0.,4.8,0.,4.8
1981-08-30 09:04:19.650 ,0,0,0.,4.8,4.,4.8,2.,4.8,2.,4.8
1981-08-30 09:04:24.450 ,0,0,0.,4.8,2.,4.8,0.,4.8,0.,4.8
1981-08-30 09:04:29.250 ,0,0,0.,4.8,0.,4.8,0.,4.8,0.,4.8
1981-08-30 09:04:34.050 ,0,0,0.,4.8,1.,4.8,0.,4.8,1.,4.8
1981-08-30 09:04:38.850 ,0,0,0.,4.8,7.,4.8,1.,4.8,1.,4.8
1981-08-30 09:04:43.650 ,0,0,0.,4.8,1.,4.8,0.,4.8,0.,4.8
1981-08-30 09:04:48.450 ,1,0,0.,4.8,1.,4.8,1.,4.8,0.,4.8
1981-08-30 09:04:53.250 ,1,0,0.,4.8,1.,4.8,0.,4.8,1.,4.8
1981-08-30 09:04:58.050 ,1,0,0.,4.8,1.,4.8,1.,4.8,0.,4.8
1981-08-30 09:05:02.850 ,1,0,0.,4.8,0.,4.8,0.,4.8,0.,4.8
1981-08-30 09:05:07.650 ,1,0,0.,4.8,2.,4.8,0.,4.8,2.,4.8
1981-08-30 09:05:12.450 ,2,0,0.,4.8,6.,4.8,0.,4.8,0.,4.8
1981-08-30 09:05:17.250 ,2,0,0.,4.8,2.,4.8,1.,4.8,1.,4.8
1981-08-30 09:05:22.050 ,2,0,0.,4.8,3.,4.8,0.,4.8,0.,4.8
1981-08-30 09:05:26.850 ,2,0,0.,4.8,3.,4.8,2.,4.8,1.,4.8
1981-08-30 09:05:31.650 ,2,0,0.,4.8,3.,4.8,0.,4.8,0.,4.8
1981-08-30 09:05:36.450 ,3,0,0.,4.8,2.,4.8,0.,4.8,0.,4.8
1981-08-30 09:05:41.250 ,3,0,0.,4.8,1.,4.8,1.,4.8,0.,4.8
1981-08-30 09:05:46.050 ,3,0,0.,4.8,1.,4.8,0.,4.8,0.,4.8
1981-08-30 09:05:50.850 ,3,0,0.,4.8,0.,4.8,1.,4.8,0.,4.8
1981-08-30 09:05:55.650 ,3,0,0.,4.8,0.,4.8,2.,4.8,2.,4.8
1981-08-30 09:06:00.450 ,3,0,0.,4.8,1.,4.8,2.,4.8,1.,4.8
1981-08-30 09:06:05.250 ,3,0,0.,4.8,3.,4.8,2.,4.8,1.,4.8
1981-08-30 09:06:10.050 ,3,0,0.,4.8,0.,4.8,2.,4.8,0.,4.8
1981-08-30 09:06:14.850 ,3,0,0.,4.8,0.,4.8,0.,4.8,0.,4.8
1981-08-30 09:06:19.650 ,3,0,0.,4.8,2.,4.8,3.,4.8,0.,4.8
1981-08-30 09:06:24.450 ,4,0,0.,4.8,3.,4.8,0.,4.8,1.,4.8
1981-08-30 09:06:29.250 ,4,0,0.,4.8,1.,4.8,0.,4.8,0.,4.8
1981-08-30 09:06:34.050 ,4,0,0.,4.8,3.,4.8,0.,4.8,2.,4.8
1981-08-30 09:06:38.850 ,4,0,0.,4.8,2.,4.8,1.,4.8,0.,4.8
1981-08-30 09:06:43.650 ,4,0,0.,4.8,2.,4.8,1.,4.8,0.,4.8
1981-08-30 09:06:48.450 ,4,0,0.,4.8,2.,4.8,2.,4.8,0.,4.8
1981-08-30 09:06:53.250 ,4,0,0.,4.8,1.,4.8,1.,4.8,0.,4.8
1981-08-30 09:06:58.050 ,4,0,0.,4.8,4.,4.8,0.,4.8,0.,4.8
1981-08-30 09:07:02.850 ,4,0,0.,4.8,1.,4.8,0.,4.8,0.,4.8
1981-08-30 09:07:07.650 ,4,0,0.,4.8,0.,4.8,0.,4.8,0.,4.8
1981-08-30 09:07:12.450 ,5,0,0.,4.8,4.,4.8,2.,4.8,0.,4.8
1981-08-30 09:07:17.250 ,5,0,0.,4.8,2.,4.8,2.,4.8,1.,4.8
1981-08-30 09:07:22.050 ,5,0,0.,4.8,1.,4.8,0.,4.8,0.,4.8
1981-08-30 09:07:26.850 ,5,0,0.,4.8,3.,4.8,1.,4.8,0.,4.8
1981-08-30 09:07:31.650 ,5,0,0.,4.8,2.,4.8,0.,4.8,1.,4.8
1981-08-30 09:07:36.450 ,5,0,0.,4.8,2.,4.8,0.,4.8,0.,4.8
1981-08-30 09:07:41.250 ,5,0,0.,4.8,1.,4.8,0.,4.8,0.,4.8
1981-08-30 09:07:46.050 ,5,0,0.,4.8,2.,4.8,0.,4.8,0.,4.8
1981-08-30 09:07:50.850 ,5,0,0.,4.8,0.,4.8,0.,4.8,0.,4.8
1981-08-30 09:07:55.650 ,5,0,0.,4.8,1.,4.8,0.,4.8,0.,4.8
1981-08-30 09:08:00.450 ,6,0,0.,4.8,1.,4.8,0.,4.8,0.,4.8
1981-08-30 09:08:05.250 ,6,0,0.,4.8,0.,4.8,1.,4.8,1.,4.8
1981-08-30 09:08:10.050 ,6,0,0.,4.8,4.,4.8,0.,4.8,0.,4.8
1981-08-30 09:08:14.850 ,6,0,0.,4.8,3.,4.8,0.,4.8,0.,4.8
1981-08-30 09:08:19.650 ,6,0,0.,4.8,3.,4.8,0.,4.8,1.,4.8
1981-08-30 09:08:24.450 ,6,0,0.,4.8,0.,4.8,3.,4.8,1.,4.8
1981-08-30 09:08:29.250 ,6,0,0.,4.8,1.,4.8,1.,4.8,1.,4.8
1981-08-30 09:08:34.050 ,6,0,0.,4.8,3.,4.8,0.,4.8,0.,4.8
1981-08-30 09:08:38.850 ,6,0,0.,4.8,2.,4.8,0.,4.8,0.,4.8
1981-08-30 09:08:43.650 ,6,0,0.,4.8,0.,4.8,0.,4.8,0.,4.8
1981-08-30 09:08:48.450 ,7,0,0.,4.8,2.,4.8,0.,4.8,1.,4.8
1981-08-30 09:08:53.250 ,7,0,0.,4.8,1.,4.8,0.,4.8,1.,4.8
1981-08-30 09:08:58.050 ,7,0,0.,4.8,0.,4.8,0.,4.8,1.,4.8
1981-08-30 09:09:02.850 ,7,0,0.,4.8,0.,4.8,0.,4.8,1.,4.8
1981-08-30 09:09:07.650 ,7,0,0.,4.8,1.,4.8,0.,4.8,1.,4.8
1981-08-30 09:09:12.450 ,7,0,0.,4.8,0.,4.8,0.,4.8,1.,4.8
1981-08-30 09:09:17.250 ,7,0,0.,4.8,0.,4.8,1.,4.8,0.,4.8
1981-08-30 09:09:22.050 ,7,0,0.,4.8,1.,4.8,1.,4.8,0.,4.8
1981-08-30 09:09:26.850 ,7,0,0.,4.8,0.,4.8,0.,4.8,0.,4.8
1981-08-30 09:09:31.650 ,7,0,0.,4.8,1.,4.8,0.,4.8,0.,4.8
1981-08-30 09:09:36.450 ,7,0,0.,4.8,0.,4.8,0.,4.8,0.,4.8
1981-08-30 09:09:41.250 ,7,0,0.,4.8,0.,4.8,0.,4.8,0.,4.8
1981-08-30 09:09:46.050 ,7,0,0.,4.8,0.,4.8,0.,4.8,0.,4.8
1981-08-30 09:09:50.850 ,7,0,0.,4.8,0.,4.8,0.,4.8,0.,4.8
1981-08-30 09:09:55.650 ,7,0,0.,4.8,0.,4.8,0.,4.8,0.,4.8
1981-08-30 09:10:00.450 ,7,0,0.,4.8,1.,4.8,0.,4.8,0.,4.8
1981-08-30 09:10:05.250 ,7,0,0.,4.8,0.,4.8,0.,4.8,0.,4.8
1981-08-30 09:10:10.050 ,7,0,0.,4.8,2.,4.8,0.,4.8,1.,4.8
1981-08-30 09:10:14.850 ,7,0,0.,4.8,1.,4.8,0.,4.8,1.,4.8
1981-08-30 09:10:19.650 ,7,0,0.,4.8,0.,4.8,0.,4.8,0.,4.8
1981-08-30 09:10:24.450 ,6,0,0.,4.8,1.,4.8,1.,4.8,0.,4.8
1981-08-30 09:10:29.250 ,6,0,0.,4.8,0.,4.8,0.,4.8,0.,4.8
1981-08-30 09:10:34.050 ,6,0,0.,4.8,1.,4.8,0.,4.8,0.,4.8
1981-08-30 09:10:38.850 ,6,0,0.,4.8,3.,4.8,0.,4.8,0.,4.8
1981-08-30 09:10:43.650 ,6,0,0.,4.8,0.,4.8,1.,4.8,2.,4.8
1981-08-30 09:10:48.450 ,6,0,0.,4.8,5.,4.8,0.,4.8,0.,4.8
1981-08-30 09:10:53.250 ,6,0,0.,4.8,0.,4.8,0.,4.8,0.,4.8
1981-08-30 09:10:58.050 ,6,0,0.,4.8,5.,4.8,0.,4.8,3.,4.8
1981-08-30 09:11:02.850 ,6,0,0.,4.8,0.,4.8,2.,4.8,0.,4.8
1981-08-30 09:11:07.650 ,6,0,0.,4.8,1.,4.8,0.,4.8,0.,4.8
1981-08-30 09:11:12.450 ,5,0,0.,4.8,1.,4.8,1.,4.8,0.,4.8
1981-08-30 09:11:17.250 ,5,0,0.,4.8,1.,4.8,0.,4.8,0.,4.8
1981-08-30 09:11:22.050 ,5,0,0.,4.8,3.,4.8,0.,4.8,0.,4.8
1981-08-30 09:11:26.850 ,5,0,0.,4.8,3.,4.8,2.,4.8,0.,4.8
1981-08-30 09:11:31.650 ,5,0,0.,4.8,3.,4.8,0.,4.8,0.,4.8
1981-08-30 09:11:36.450 ,5,0,0.,4.8,1.,4.8,0.,4.8,1.,4.8
1981-08-30 09:11:41.250 ,5,0,0.,4.8,1.,4.8,0.,4.8,0.,4.8
1981-08-30 09:11:46.050 ,5,0,0.,4.8,2.,4.8,1.,4.8,0.,4.8
1981-08-30 09:11:50.850 ,5,0,0.,4.8,1.,4.8,0.,4.8,0.,4.8
1981-08-30 09:11:55.650 ,5,0,0.,4.8,2.,4.8,0.,4.8,0.,4.8
1981-08-30 09:12:00.450 ,4,0,0.,4.8,1.,4.8,0.,4.8,0.,4.8
1981-08-30 09:12:05.250 ,4,0,0.,4.8,0.,4.8,0.,4.8,0.,4.8
1981-08-30 09:12:10.050 ,4,0,0.,4.8,0.,4.8,0.,4.8,0.,4.8
1981-08-30 09:12:14.850 ,4,0,0.,4.8,2.,4.8,2.,4.8,0.,4.8
1981-08-30 09:12:19.650 ,4,0,0.,4.8,2.,4.8,0.,4.8,0.,4.8
1981-08-30 09:12:24.450 ,4,0,0.,4.8,3.,4.8,1.,4.8,0.,4.8
1981-08-30 09:12:29.250 ,4,0,0.,4.8,2.,4.8,0.,4.8,1.,4.8
1981-08-30 09:12:34.050 ,4,0,0.,4.8,2.,4.8,2.,4.8,1.,4.8
1981-08-30 09:12:38.850 ,4,0,0.,4.8,2.,4.8,0.,4.8,0.,4.8
1981-08-30 09:12:43.650 ,4,0,0.,4.8,1.,4.8,0.,4.8,0.,4.8
1981-08-30 09:12:48.450 ,3,0,0.,4.8,1.,4.8,0.,4.8,0.,4.8
1981-08-30 09:12:53.250 ,3,0,0.,4.8,3.,4.8,0.,4.8,0.,4.8
1981-08-30 09:12:58.050 ,3,0,0.,4.8,0.,4.8,0.,4.8,0.,4.8
1981-08-30 09:13:02.850 ,3,0,0.,4.8,6.,4.8,0.,4.8,0.,4.8
1981-08-30 09:13:07.650 ,3,0,0.,4.8,3.,4.8,1.,4.8,0.,4.8
1981-08-30 09:13:12.450 ,3,0,0.,4.8,1.,4.8,0.,4.8,0.,4.8
1981-08-30 09:13:17.250 ,3,0,0.,4.8,1.,4.8,1.,4.8,1.,4.8
1981-08-30 09:13:22.050 ,3,0,0.,4.8,1.,4.8,2.,4.8,0.,4.8
1981-08-30 09:13:26.850 ,3,0,0.,4.8,5.,4.8,1.,4.8,0.,4.8
1981-08-30 09:13:31.650 ,3,0,0.,4.8,3.,4.8,0.,4.8,0.,4.8
1981-08-30 09:13:36.450 ,2,0,0.,4.8,0.,4.8,1.,4.8,0.,4.8
1981-08-30 09:13:41.250 ,2,0,0.,4.8,0.,4.8,1.,4.8,0.,4.8
1981-08-30 09:13:46.050 ,2,0,0.,4.8,2.,4.8,1.,4.8,1.,4.8
1981-08-30 09:13:50.850 ,2,0,0.,4.8,4.,4.8,0.,4.8,0.,4.8
1981-08-30 09:13:55.650 ,2,0,0.,4.8,4.,4.8,0.,4.8,0.,4.8
1981-08-30 09:14:00.450 ,2,0,0.,4.8,1.,4.8,0.,4.8,0.,4.8
1981-08-30 09:14:05.250 ,2,0,0.,4.8,0.,4.8,0.,4.8,2.,4.8
1981-08-30 09:14:10.050 ,2,0,0.,4.8,2.,4.8,0.,4.8,0.,4.8
1981-08-30 09:14:14.850 ,2,0,0.,4.8,1.,4.8,0.,4.8,0.,4.8
1981-08-30 09:14:19.650 ,2,0,0.,4.8,2.,4.8,1.,4.8,0.,4.8
1981-08-30 09:14:24.450 ,1,0,0.,4.8,1.,4.8,0.,4.8,0.,4.8
1981-08-30 09:14:29.250 ,1,0,0.,4.8,0.,4.8,1.,4.8,0.,4.8
1981-08-30 09:14:34.050 ,1,0,0.,4.8,2.,4.8,0.,4.8,0.,4.8
1981-08-30 09:14:38.850 ,1,0,0.,4.8,0.,4.8,3.,4.8,0.,4.8
1981-08-30 09:14:43.650 ,1,0,0.,4.8,2.,4.8,1.,4.8,0.,4.8
1981-08-30 09:14:48.450 ,1,0,0.,4.8,2.,4.8,0.,4.8,0.,4.8
1981-08-30 09:14:53.250 ,1,0,0.,4.8,1.,4.8,0.,4.8,0.,4.8
1981-08-30 09:14:58.050 ,1,0,0.,4.8,1.,4.8,0.,4.8,0.,4.8
1981-08-30 09:15:02.850 ,1,0,0.,4.8,1.,4.8,0.,4.8,1.,4.8
1981-08-30 09:15:07.650 ,1,0,0.,4.8,1.,4.8,0.,4.8,1.,4.8
1981-08-30 09:15:12.450 ,0,0,0.,4.8,3.,4.8,0.,4.8,1.,4.8
1981-08-30 09:15:17.250 ,0,0,0.,4.8,1.,4.8,1.,4.8,0.,4.8
1981-08-30 09:15:22.050 ,0,0,0.,4.8,2.,4.8,0.,4.8,0.,4.8
1981-08-30 09:15:26.850 ,0,0,0.,4.8,1.,4.8,1.,4.8,1.,4.8
1981-08-30 09:15:31.650 ,0,0,0.,4.8,0.,4.8,0.,4.8,0.,4.8
1981-08-30 09:15:36.450 ,0,0,0.,4.8,3.,4.8,0.,4.8,0.,4.8
1981-08-30 09:15:41.250 ,0,0,0.,4.8,2.,4.8,1.,4.8,3.,4.8
1981-08-30 09:15:46.050 ,0,0,0.,4.8,2.,4.8,4.,4.8,0.,4.8
1981-08-30 09:15:50.850 ,0,0,0.,4.8,3.,4.8,0.,4.8,2.,4.8
1981-08-30 09:15:55.650 ,0,0,0.,4.8,0.,4.8,0.,4.8,0.,4.8
1981-08-30 09:16:00.450 ,0,0,0.,4.8,2.,4.8,0.,4.8,0.,4.8
1981-08-30 09:16:05.250 ,0,0,0.,4.8,2.,4.8,0.,4.8,0.,4.8
1981-08-30 09:16:10.050 ,0,0,0.,4.8,1.,4.8,5.,4.8,0.,4.8
1981-08-30 09:16:14.850 ,0,0,0.,4.8,3.,4.8,2.,4.8,2.,4.8
1981-08-30 09:16:19.650 ,0,0,0.,4.8,2.,4.8,0.,4.8,0.,4.8
1981-08-30 09:16:24.450 ,0,0,0.,4.8,0.,4.8,1.,4.8,1.,4.8
1981-08-30 09:16:29.250 ,0,0,0.,4.8,4.,4.8,0.,4.8,0.,4.8
1981-08-30 09:16:34.050 ,0,0,0.,4.8,2.,4.8,0.,4.8,0.,4.8
1981-08-30 09:16:38.850 ,0,0,0.,4.8,2.,4.8,1.,4.8,0.,4.8
1981-08-30 09:16:43.650 ,0,0,0.,4.8,2.,4.8,0.,4.8,0.,4.8
1981-08-30 09:16:48.450 ,1,0,0.,4.8,0.,4.8,1.,4.8,1.,4.8
1981-08-30 09:16:53.240 ,1,0,0.,4.8,3.,4.8,0.,4.8,1.,4.8
1981-08-30 09:16:58.040 ,1,0,0.,4.8,2.,4.8,0.,4.8,0.,4.8
1981-08-30 09:17:02.840 ,1,0,0.,4.8,2.,4.8,3.,4.8,0.,4.8
1981-08-30 09:17:07.650 ,1,0,0.,4.8,2.,4.8,0.,4.8,0.,4.8
1981-08-30 09:17:12.450 ,1,0,0.,4.8,2.,4.8,1.,4.8,0.,4.8
1981-08-30 09:17:17.240 ,1,0,0.,4.8,2.,4.8,0.,4.8,0.,4.8
1981-08-30 09:17:22.050 ,1,0,0.,4.8,2.,4.8,1.,4.8,0.,4.8
1981-08-30 09:17:26.850 ,1,0,0.,4.8,3.,4.8,1.,4.8,0.,4.8
1981-08-30 09:17:31.650 ,1,0,0.,4.8,2.,4.8,0.,4.8,0.,4.8
1981-08-30 09:17:36.450 ,2,0,0.,4.8,0.,4.8,1.,4.8,0.,4.8
1981-08-30 09:17:41.240 ,2,0,0.,4.8,0.,4.8,1.,4.8,0.,4.8
1981-08-30 09:17:46.050 ,2,0,0.,4.8,3.,4.8,0.,4.8,0.,4.8
1981-08-30 09:17:50.850 ,2,0,0.,4.8,2.,4.8,0.,4.8,0.,4.8
1981-08-30 09:17:55.650 ,2,0,0.,4.8,1.,4.8,0.,4.8,1.,4.8
1981-08-30 09:18:00.450 ,2,0,0.,4.8,3.,4.8,0.,4.8,0.,4.8
1981-08-30 09:18:05.240 ,2,0,0.,4.8,2.,4.8,1.,4.8,0.,4.8
1981-08-30 09:18:10.050 ,2,0,0.,4.8,3.,4.8,0.,4.8,0.,4.8
1981-08-30 09:18:14.850 ,2,0,0.,4.8,3.,4.8,0.,4.8,1.,4.8
1981-08-30 09:18:19.650 ,2,0,0.,4.8,1.,4.8,3.,4.8,0.,4.8
1981-08-30 09:18:24.450 ,3,0,0.,4.8,1.,4.8,0.,4.8,0.,4.8
1981-08-30 09:18:29.240 ,3,0,0.,4.8,1.,4.8,1.,4.8,1.,4.8
1981-08-30 09:18:34.050 ,3,0,0.,4.8,1.,4.8,0.,4.8,0.,4.8
1981-08-30 09:18:38.850 ,3,0,0.,4.8,2.,4.8,0.,4.8,0.,4.8
1981-08-30 09:18:43.650 ,3,0,0.,4.8,2.,4.8,1.,4.8,0.,4.8
1981-08-30 09:18:48.450 ,4,0,0.,4.8,3.,4.8,2.,4.8,0.,4.8
1981-08-30 09:18:53.240 ,4,0,0.,4.8,5.,4.8,0.,4.8,0.,4.8
1981-08-30 09:18:58.050 ,4,0,0.,4.8,2.,4.8,1.,4.8,0.,4.8
1981-08-30 09:19:02.850 ,4,0,0.,4.8,2.,4.8,0.,4.8,0.,4.8
1981-08-30 09:19:07.650 ,4,0,0.,4.8,2.,4.8,2.,4.8,0.,4.8
1981-08-30 09:19:12.450 ,5,0,0.,4.8,1.,4.8,1.,4.8,0.,4.8
1981-08-30 09:19:17.240 ,5,0,0.,4.8,1.,4.8,2.,4.8,0.,4.8
1981-08-30 09:19:22.050 ,5,0,0.,4.8,1.,4.8,1.,4.8,0.,4.8
1981-08-30 09:19:26.850 ,5,0,0.,4.8,1.,4.8,0.,4.8,0.,4.8
1981-08-30 09:19:31.650 ,5,0,0.,4.8,0.,4.8,2.,4.8,0.,4.8
1981-08-30 09:19:36.450 ,6,0,0.,4.8,1.,4.8,0.,4.8,0.,4.8
1981-08-30 09:19:41.240 ,6,0,0.,4.8,0.,4.8,0.,4.8,0.,4.8
1981-08-30 09:19:46.050 ,6,0,0.,4.8,3.,4.8,1.,4.8,0.,4.8
1981-08-30 09:19:50.850 ,6,0,0.,4.8,2.,4.8,1.,4.8,0.,4.8
1981-08-30 09:19:55.650 ,6,0,0.,4.8,2.,4.8,0.,4.8,0.,4.8
1981-08-30 09:20:00.450 ,7,0,0.,4.8,3.,4.8,0.,4.8,1.,4.8
1981-08-30 09:20:05.240 ,7,0,0.,4.8,2.,4.8,0.,4.8,0.,4.8
1981-08-30 09:20:10.050 ,7,0,0.,4.8,1.,4.8,0.,4.8,0.,4.8
1981-08-30 09:20:14.850 ,7,0,0.,4.8,0.,4.8,0.,4.8,0.,4.8
1981-08-30 09:20:19.650 ,7,0,0.,4.8,0.,4.8,0.,4.8,0.,4.8
1981-08-30 09:20:24.450 ,7,0,0.,4.8,0.,4.8,0.,4.8,0.,4.8
1981-08-30 09:20:29.240 ,7,0,0.,4.8,0.,4.8,0.,4.8,0.,4.8
1981-08-30 09:20:34.050 ,7,0,0.,4.8,0.,4.8,0.,4.8,0.,4.8
1981-08-30 09:20:38.850 ,7,0,0.,4.8,0.,4.8,0.,4.8,0.,4.8
1981-08-30 09:20:43.650 ,7,0,0.,4.8,0.,4.8,0.,4.8,0.,4.8
1981-08-30 09:20:48.450 ,6,0,0.,4.8,0.,4.8,0.,4.8,0.,4.8
1981-08-30 09:20:53.240 ,6,0,0.,4.8,0.,4.8,0.,4.8,0.,4.8
1981-08-30 09:20:58.050 ,6,0,0.,4.8,1.,4.8,0.,4.8,1.,4.8
1981-08-30 09:21:02.850 ,6,0,0.,4.8,0.,4.8,0.,4.8,2.,4.8
1981-08-30 09:21:07.650 ,6,0,0.,4.8,2.,4.8,0.,4.8,0.,4.8
1981-08-30 09:21:12.450 ,5,0,0.,4.8,0.,4.8,0.,4.8,0.,4.8
1981-08-30 09:21:17.240 ,5,0,0.,4.8,0.,4.8,1.,4.8,1.,4.8
1981-08-30 09:21:22.050 ,5,0,0.,4.8,1.,4.8,1.,4.8,0.,4.8
1981-08-30 09:21:26.850 ,5,0,0.,4.8,1.,4.8,0.,4.8,0.,4.8
1981-08-30 09:21:31.650 ,5,0,0.,4.8,3.,4.8,0.,4.8,1.,4.8
1981-08-30 09:21:36.450 ,4,0,0.,4.8,1.,4.8,1.,4.8,0.,4.8
1981-08-30 09:21:41.240 ,4,0,0.,4.8,0.,4.8,0.,4.8,1.,4.8
1981-08-30 09:21:46.050 ,4,0,0.,4.8,2.,4.8,2.,4.8,0.,4.8
1981-08-30 09:21:50.850 ,4,0,0.,4.8,5.,4.8,0.,4.8,1.,4.8
1981-08-30 09:21:55.650 ,4,0,0.,4.8,2.,4.8,1.,4.8,0.,4.8
1981-08-30 09:22:00.450 ,3,0,0.,4.8,2.,4.8,1.,4.8,1.,4.8
1981-08-30 09:22:05.240 ,3,0,0.,4.8,1.,4.8,3.,4.8,0.,4.8
1981-08-30 09:22:10.050 ,3,0,0.,4.8,2.,4.8,0.,4.8,1.,4.8
1981-08-30 09:22:14.850 ,3,0,0.,4.8,2.,4.8,2.,4.8,0.,4.8
1981-08-30 09:22:19.650 ,3,0,0.,4.8,0.,4.8,0.,4.8,0.,4.8
1981-08-30 09:22:24.450 ,2,0,0.,4.8,0.,4.8,0.,4.8,0.,4.8
1981-08-30 09:22:29.240 ,2,0,0.,4.8,2.,4.8,0.,4.8,0.,4.8
1981-08-30 09:22:34.050 ,2,0,0.,4.8,1.,4.8,0.,4.8,0.,4.8
1981-08-30 09:22:38.850 ,2,0,0.,4.8,1.,4.8,1.,4.8,0.,4.8
1981-08-30 09:22:43.650 ,2,0,0.,4.8,0.,4.8,3.,4.8,0.,4.8
1981-08-30 09:22:48.450 ,1,0,0.,4.8,2.,4.8,2.,4.8,0.,4.8
1981-08-30 09:22:53.240 ,1,0,0.,4.8,1.,4.8,0.,4.8,0.,4.8
1981-08-30 09:22:58.050 ,1,0,0.,4.8,3.,4.8,1.,4.8,1.,4.8
1981-08-30 09:23:02.850 ,1,0,0.,4.8,2.,4.8,2.,4.8,0.,4.8
1981-08-30 09:23:07.650 ,1,0,0.,4.8,1.,4.8,1.,4.8,2.,4.8
1981-08-30 09:23:12.450 ,0,0,0.,4.8,3.,4.8,1.,4.8,1.,4.8
1981-08-30 09:23:17.240 ,0,0,0.,4.8,1.,4.8,0.,4.8,1.,4.8
1981-08-30 09:23:22.050 ,0,0,0.,4.8,2.,4.8,2.,4.8,0.,4.8
1981-08-30 09:23:26.850 ,0,0,0.,4.8,1.,4.8,3.,4.8,0.,4.8
1981-08-30 09:23:31.650 ,0,0,0.,4.8,1.,4.8,0.,4.8,0.,4.8
1981-08-30 09:23:36.450 ,0,0,0.,4.8,4.,4.8,1.,4.8,0.,4.8
1981-08-30 09:23:41.240 ,0,0,0.,4.8,1.,4.8,1.,4.8,0.,4.8
1981-08-30 09:23:46.050 ,0,0,0.,4.8,1.,4.8,2.,4.8,1.,4.8
1981-08-30 09:23:50.850 ,0,0,0.,4.8,3.,4.8,0.,4.8,0.,4.8
1981-08-30 09:23:55.650 ,0,0,0.,4.8,1.,4.8,1.,4.8,0.,4.8
1981-08-30 09:24:00.450 ,1,0,0.,4.8,2.,4.8,0.,4.8,0.,4.8
1981-08-30 09:24:05.240 ,1,0,0.,4.8,1.,4.8,1.,4.8,0.,4.8
1981-08-30 09:24:10.050 ,1,0,0.,4.8,1.,4.8,1.,4.8,1.,4.8
1981-08-30 09:24:14.850 ,1,0,0.,4.8,1.,4.8,0.,4.8,0.,4.8
1981-08-30 09:24:19.650 ,1,0,0.,4.8,1.,4.8,0.,4.8,0.,4.8
1981-08-30 09:24:24.450 ,2,0,0.,4.8,2.,4.8,2.,4.8,0.,4.8
1981-08-30 09:24:29.240 ,2,0,0.,4.8,2.,4.8,0.,4.8,0.,4.8
1981-08-30 09:24:34.050 ,2,0,0.,4.8,0.,4.8,1.,4.8,1.,4.8
1981-08-30 09:24:38.850 ,2,0,0.,4.8,2.,4.8,0.,4.8,0.,4.8
1981-08-30 09:24:43.650 ,2,0,0.,4.8,2.,4.8,2.,4.8,0.,4.8
1981-08-30 09:24:48.450 ,3,0,0.,4.8,1.,4.8,0.,4.8,0.,4.8
1981-08-30 09:24:53.240 ,3,0,0.,4.8,1.,4.8,1.,4.8,0.,4.8
1981-08-30 09:24:58.050 ,3,0,0.,4.8,1.,4.8,0.,4.8,0.,4.8
1981-08-30 09:25:02.850 ,3,0,0.,4.8,2.,4.8,0.,4.8,0.,4.8
1981-08-30 09:25:07.650 ,3,0,0.,4.8,3.,4.8,0.,4.8,0.,4.8
1981-08-30 09:25:12.450 ,3,0,0.,4.8,3.,4.8,0.,4.8,0.,4.8
1981-08-30 09:25:17.240 ,3,0,0.,4.8,3.,4.8,0.,4.8,1.,4.8
1981-08-30 09:25:22.050 ,3,0,0.,4.8,0.,4.8,2.,4.8,0.,4.8
1981-08-30 09:25:26.850 ,3,0,0.,4.8,1.,4.8,2.,4.8,0.,4.8
1981-08-30 09:25:31.650 ,3,0,0.,4.8,2.,4.8,0.,4.8,2.,4.8
1981-08-30 09:25:36.450 ,4,0,0.,4.8,0.,4.8,0.,4.8,0.,4.8
1981-08-30 09:25:41.240 ,4,0,0.,4.8,2.,4.8,1.,4.8,1.,4.8
1981-08-30 09:25:46.050 ,4,0,0.,4.8,3.,4.8,0.,4.8,0.,4.8
1981-08-30 09:25:50.850 ,4,0,0.,4.8,4.,4.8,1.,4.8,0.,4.8
1981-08-30 09:25:55.650 ,4,0,0.,4.8,2.,4.8,1.,4.8,0.,4.8
1981-08-30 09:26:00.450 ,4,0,0.,4.8,0.,4.8,0.,4.8,0.,4.8
1981-08-30 09:26:05.240 ,4,0,0.,4.8,0.,4.8,2.,4.8,0.,4.8
1981-08-30 09:26:10.050 ,4,0,0.,4.8,0.,4.8,0.,4.8,1.,4.8
1981-08-30 09:26:14.850 ,4,0,0.,4.8,2.,4.8,0.,4.8,0.,4.8
1981-08-30 09:26:19.650 ,4,0,0.,4.8,2.,4.8,0.,4.8,0.,4.8
1981-08-30 09:26:24.450 ,5,0,0.,4.8,4.,4.8,0.,4.8,1.,4.8
1981-08-30 09:26:29.240 ,5,0,0.,4.8,0.,4.8,2.,4.8,2.,4.8
1981-08-30 09:26:34.050 ,5,0,0.,4.8,0.,4.8,0.,4.8,1.,4.8
1981-08-30 09:26:38.850 ,5,0,0.,4.8,0.,4.8,0.,4.8,0.,4.8
1981-08-30 09:26:43.650 ,5,0,0.,4.8,3.,4.8,0.,4.8,0.,4.8
1981-08-30 09:26:48.450 ,5,0,0.,4.8,3.,4.8,0.,4.8,0.,4.8
1981-08-30 09:26:53.240 ,5,0,0.,4.8,2.,4.8,0.,4.8,0.,4.8
1981-08-30 09:26:58.050 ,5,0,0.,4.8,2.,4.8,0.,4.8,0.,4.8
1981-08-30 09:27:02.850 ,5,0,0.,4.8,1.,4.8,1.,4.8,1.,4.8
1981-08-30 09:27:07.650 ,5,0,0.,4.8,3.,4.8,0.,4.8,0.,4.8
1981-08-30 09:27:12.450 ,6,0,0.,4.8,2.,4.8,2.,4.8,1.,4.8
1981-08-30 09:27:17.240 ,6,0,0.,4.8,2.,4.8,0.,4.8,0.,4.8
1981-08-30 09:27:22.050 ,6,0,0.,4.8,1.,4.8,0.,4.8,1.,4.8
1981-08-30 09:27:26.850 ,6,0,0.,4.8,1.,4.8,0.,4.8,1.,4.8
1981-08-30 09:27:31.650 ,6,0,0.,4.8,1.,4.8,1.,4.8,0.,4.8
1981-08-30 09:27:36.450 ,6,0,0.,4.8,2.,4.8,0.,4.8,0.,4.8
1981-08-30 09:27:41.240 ,6,0,0.,4.8,4.,4.8,0.,4.8,0.,4.8
1981-08-30 09:27:46.050 ,6,0,0.,4.8,2.,4.8,1.,4.8,0.,4.8
1981-08-30 09:27:50.850 ,6,0,0.,4.8,3.,4.8,1.,4.8,0.,4.8
1981-08-30 09:27:55.650 ,6,0,0.,4.8,3.,4.8,0.,4.8,0.,4.8
1981-08-30 09:28:00.450 ,7,0,0.,4.8,2.,4.8,0.,4.8,0.,4.8
1981-08-30 09:28:05.240 ,7,0,0.,4.8,1.,4.8,0.,4.8,0.,4.8
1981-08-30 09:28:10.050 ,7,0,0.,4.8,0.,4.8,0.,4.8,1.,4.8
1981-08-30 09:28:14.850 ,7,0,0.,4.8,1.,4.8,0.,4.8,0.,4.8
1981-08-30 09:28:19.650 ,7,0,0.,4.8,0.,4.8,1.,4.8,0.,4.8
1981-08-30 09:28:24.450 ,7,0,0.,4.8,0.,4.8,0.,4.8,0.,4.8
1981-08-30 09:28:29.240 ,7,0,0.,4.8,0.,4.8,1.,4.8,0.,4.8
1981-08-30 09:28:34.050 ,7,0,0.,4.8,0.,4.8,0.,4.8,0.,4.8
1981-08-30 09:28:38.850 ,7,0,0.,4.8,1.,4.8,1.,4.8,1.,4.8
1981-08-30 09:28:43.650 ,7,0,0.,4.8,1.,4.8,0.,4.8,0.,4.8
1981-08-30 09:28:48.450 ,7,0,0.,4.8,0.,4.8,0.,4.8,0.,4.8
1981-08-30 09:28:53.240 ,7,0,0.,4.8,0.,4.8,0.,4.8,0.,4.8
1981-08-30 09:28:58.050 ,7,0,0.,4.8,0.,4.8,0.,4.8,0.,4.8
1981-08-30 09:29:02.850 ,7,0,0.,4.8,0.,4.8,0.,4.8,1.,4.8
1981-08-30 09:29:07.650 ,7,0,0.,4.8,1.,4.8,1.,4.8,1.,4.8
1981-08-30 09:29:12.450 ,7,0,0.,4.8,1.,4.8,0.,4.8,0.,4.8
1981-08-30 09:29:17.240 ,7,0,0.,4.8,0.,4.8,0.,4.8,0.,4.8
1981-08-30 09:29:22.050 ,7,0,0.,4.8,1.,4.8,1.,4.8,0.,4.8
1981-08-30 09:29:26.850 ,7,0,0.,4.8,0.,4.8,0.,4.8,0.,4.8
1981-08-30 09:29:31.650 ,7,0,0.,4.8,2.,4.8,1.,4.8,0.,4.8
1981-08-30 09:29:36.450 ,6,0,0.,4.8,0.,4.8,0.,4.8,0.,4.8
1981-08-30 09:29:41.240 ,6,0,0.,4.8,0.,4.8,0.,4.8,0.,4.8
1981-08-30 09:29:46.050 ,6,0,0.,4.8,2.,4.8,0.,4.8,0.,4.8
1981-08-30 09:29:50.850 ,6,0,0.,4.8,1.,4.8,0.,4.8,0.,4.8
1981-08-30 09:29:55.650 ,6,0,0.,4.8,0.,4.8,1.,4.8,0.,4.8
1981-08-30 09:30:00.450 ,6,0,0.,4.8,2.,4.8,1.,4.8,0.,4.8
1981-08-30 09:30:05.240 ,6,0,0.,4.8,1.,4.8,0.,4.8,0.,4.8
1981-08-30 09:30:10.050 ,6,0,0.,4.8,0.,4.8,0.,4.8,0.,4.8
1981-08-30 09:30:14.850 ,6,0,0.,4.8,0.,4.8,0.,4.8,0.,4.8
1981-08-30 09:30:19.650 ,6,0,0.,4.8,2.,4.8,1.,4.8,1.,4.8
1981-08-30 09:30:24.450 ,5,0,0.,4.8,4.,4.8,0.,4.8,0.,4.8
1981-08-30 09:30:29.240 ,5,0,0.,4.8,4.,4.8,2.,4.8,0.,4.8
1981-08-30 09:30:34.050 ,5,0,0.,4.8,4.,4.8,0.,4.8,0.,4.8
1981-08-30 09:30:38.850 ,5,0,0.,4.8,1.,4.8,1.,4.8,1.,4.8
1981-08-30 09:30:43.650 ,5,0,0.,4.8,1.,4.8,0.,4.8,0.,4.8
1981-08-30 09:30:48.450 ,5,0,0.,4.8,1.,4.8,0.,4.8,0.,4.8
1981-08-30 09:30:53.240 ,5,0,0.,4.8,3.,4.8,0.,4.8,0.,4.8
1981-08-30 09:30:58.050 ,5,0,0.,4.8,3.,4.8,1.,4.8,0.,4.8
1981-08-30 09:31:02.850 ,5,0,0.,4.8,3.,4.8,1.,4.8,0.,4.8
1981-08-30 09:31:07.650 ,5,0,0.,4.8,1.,4.8,0.,4.8,0.,4.8
1981-08-30 09:31:12.450 ,4,0,0.,4.8,1.,4.8,0.,4.8,0.,4.8
1981-08-30 09:31:17.240 ,4,0,0.,4.8,3.,4.8,0.,4.8,0.,4.8
1981-08-30 09:31:22.050 ,4,0,0.,4.8,3.,4.8,0.,4.8,0.,4.8
1981-08-30 09:31:26.850 ,4,0,0.,4.8,0.,4.8,0.,4.8,1.,4.8
1981-08-30 09:31:31.650 ,4,0,0.,4.8,0.,4.8,1.,4.8,0.,4.8
1981-08-30 09:31:36.450 ,4,0,0.,4.8,1.,4.8,1.,4.8,0.,4.8
1981-08-30 09:31:41.240 ,4,0,0.,4.8,2.,4.8,2.,4.8,0.,4.8
1981-08-30 09:31:46.050 ,4,0,0.,4.8,2.,4.8,0.,4.8,0.,4.8
1981-08-30 09:31:50.850 ,4,0,0.,4.8,1.,4.8,2.,4.8,1.,4.8
1981-08-30 09:31:55.650 ,4,0,0.,4.8,1.,4.8,1.,4.8,0.,4.8
1981-08-30 09:32:00.450 ,3,0,0.,4.8,0.,4.8,1.,4.8,0.,4.8
1981-08-30 09:32:05.240 ,3,0,0.,4.8,2.,4.8,0.,4.8,1.,4.8
1981-08-30 09:32:10.050 ,3,0,0.,4.8,2.,4.8,1.,4.8,0.,4.8
1981-08-30 09:32:14.850 ,3,0,0.,4.8,1.,4.8,0.,4.8,0.,4.8
1981-08-30 09:32:19.650 ,3,0,0.,4.8,4.,4.8,0.,4.8,0.,4.8
1981-08-30 09:32:24.450 ,3,0,0.,4.8,2.,4.8,1.,4.8,0.,4.8
1981-08-30 09:32:29.240 ,3,0,0.,4.8,1.,4.8,0.,4.8,0.,4.8
1981-08-30 09:32:34.050 ,3,0,0.,4.8,1.,4.8,0.,4.8,0.,4.8
1981-08-30 09:32:38.850 ,3,0,0.,4.8,2.,4.8,0.,4.8,0.,4.8
1981-08-30 09:32:43.650 ,3,0,0.,4.8,1.,4.8,0.,4.8,1.,4.8
1981-08-30 09:32:48.450 ,2,0,0.,4.8,1.,4.8,0.,4.8,0.,4.8
1981-08-30 09:32:53.240 ,2,0,0.,4.8,0.,4.8,1.,4.8,0.,4.8
1981-08-30 09:32:58.050 ,2,0,0.,4.8,1.,4.8,0.,4.8,0.,4.8
1981-08-30 09:33:02.850 ,2,0,0.,4.8,0.,4.8,2.,4.8,0.,4.8
1981-08-30 09:33:07.650 ,2,0,0.,4.8,2.,4.8,0.,4.8,1.,4.8
1981-08-30 09:33:12.450 ,2,0,0.,4.8,0.,4.8,0.,4.8,0.,4.8
1981-08-30 09:33:17.240 ,2,0,0.,4.8,1.,4.8,0.,4.8,1.,4.8